Weather History for Kirksville, MO

Change the Weather History Date:

Saturday, May 11, 2013

  Actual Average Record
Temperature  
Mean Temperature 48 °F 60 °F  
Max Temperature 61 °F 71 °F 89 °F (1956)
Min Temperature 35 °F 50 °F 32 °F (1981)
Degree Days  
Heating Degree Days 17 6  
Month to date heating degree days 128 80  
Since 1 July heating degree days 5974 5770  
Cooling Degree Days 0 1  
Month to date cooling degree days 0 10  
Year to date cooling degree days 10 17  
Moisture  
Dew Point 37 °F    
Average Humidity 65    
Maximum Humidity 100    
Minimum Humidity 30    
Precipitation  
Precipitation 0.00 in 0.16 in 5.35 in (2002)
Month to date precipitation 1.44 1.91  
Year to date precipitation 17.41 11.10  
Sea Level Pressure  
Sea Level Pressure 30.10 in    
Wind  
Wind Speed 12 mph (WNW)    
Max Wind Speed 25 mph    
Max Gust Speed 35 mph    
Visibility 7 miles    
Events Fog    
T = Trace of Precipitation, MM = Missing Value Source: NWS Daily Summary

Daily Weather History Graph

Daily Weather History Graph

Search for Another Location

Airport:

Trip Planner

Search our weather history database for the weather conditions in past years. The results will help you decide how hot, cold, wet, or windy it might be!

Date:

Astronomy

May. 11, 2013 Rise Set
Actual Time 5:58 AM CDT 8:15 PM CDT
Civil Twilight 5:28 AM CDT 8:45 PM CDT
Nautical Twilight 4:50 AM CDT 9:23 PM CDT
Astronomical Twilight 4:09 AM CDT 10:04 PM CDT
Moon 7:06 AM CDT (5/11) 9:56 PM CDT (5/11)
Length of Visible Light 15h 17m
Length of Day
14h 17m
Waxing Crescent, 3% of the Moon is Illuminated
May 11
Waxing Crescent
May 17
First Quarter
May 24
Full
May 31
Last Quarter
Jun 8
New

Hourly Weather History & Observations

Time (CDT) Temp. Windchill Dew Point Humidity Pressure Visibility Wind Dir Wind Speed Gust Speed Precip Events Conditions
12:17 AM 42.8 °F 41.1 °F 42.8 °F 100% 30.04 in 1.8 mi WSW 3.5 mph - N/A   Clear
12:46 AM 42.8 °F 41.1 °F 41.0 °F 93% 30.04 in 3.0 mi WSW 3.5 mph - N/A   Clear
12:55 AM 41.0 °F 39.0 °F 39.9 °F 96% 30.06 in 3.0 mi WSW 3.5 mph - N/A   Clear
1:01 AM 41.0 °F 39.0 °F 39.2 °F 93% 30.04 in 1.8 mi SW 3.5 mph - N/A   Clear
1:12 AM 44.6 °F 43.1 °F 42.8 °F 93% 30.04 in 3.0 mi WSW 3.5 mph - N/A   Clear
1:16 AM 42.8 °F - 42.8 °F 100% 30.03 in 1.8 mi Calm Calm - N/A   Clear
1:22 AM 42.8 °F - 42.8 °F 100% 30.03 in 0.5 mi Calm Calm - N/A Fog Fog
1:29 AM 42.8 °F 41.1 °F 41.0 °F 93% 30.03 in 0.2 mi WSW 3.5 mph - N/A Fog Fog
1:40 AM 41.0 °F 38.0 °F 41.0 °F 100% 30.03 in 0.5 mi WSW 4.6 mph - N/A Fog Fog
1:44 AM 42.8 °F 40.1 °F 42.8 °F 100% 30.03 in 1.0 mi WSW 4.6 mph - N/A   Clear
1:55 AM 44.1 °F 41.5 °F 44.1 °F 100% 30.05 in 1.2 mi SW 4.6 mph - N/A   Clear
2:07 AM 44.6 °F 42.2 °F 44.6 °F 100% 30.03 in 3.0 mi SW 4.6 mph - N/A   Clear
2:55 AM 46.0 °F 44.8 °F 45.0 °F 96% 30.04 in 4.0 mi SW 3.5 mph - N/A   Clear
3:55 AM 46.0 °F 43.1 °F 45.0 °F 96% 30.04 in 6.0 mi SW 5.8 mph - N/A   Clear
4:55 AM 46.9 °F - 46.0 °F 97% 30.03 in 7.0 mi SW 5.8 mph - N/A   Clear
5:55 AM 48.0 °F - 46.9 °F 96% 30.03 in 8.0 mi SW 5.8 mph - N/A   Scattered Clouds
6:55 AM 48.9 °F - 48.0 °F 97% 30.04 in 7.0 mi West 10.4 mph - N/A   Partly Cloudy
7:55 AM 53.1 °F - 46.9 °F 80% 30.05 in 10.0 mi NW 15.0 mph 21.9 mph N/A   Mostly Cloudy
8:55 AM 55.9 °F - 39.9 °F 55% 30.08 in 10.0 mi NNW 17.3 mph 28.8 mph N/A   Clear
9:55 AM 57.0 °F - 33.1 °F 40% 30.10 in 10.0 mi NNW 23.0 mph 31.1 mph N/A   Clear
10:55 AM 57.9 °F - 32.0 °F 37% 30.12 in 10.0 mi North 16.1 mph 26.5 mph N/A   Clear
11:55 AM 59.0 °F - 30.9 °F 35% 30.14 in 10.0 mi NNW 19.6 mph 29.9 mph N/A   Clear
12:55 PM 60.1 °F - 32.0 °F 35% 30.15 in 10.0 mi NNW 19.6 mph 29.9 mph N/A   Clear
1:55 PM 60.1 °F - 32.0 °F 35% 30.15 in 10.0 mi NNW 18.4 mph 29.9 mph N/A   Clear
2:55 PM 60.1 °F - 30.9 °F 33% 30.16 in 10.0 mi NNW 21.9 mph 31.1 mph N/A   Clear
3:55 PM 60.1 °F - 30.9 °F 33% 30.16 in 10.0 mi NNW 19.6 mph 31.1 mph N/A   Clear
4:55 PM 59.0 °F - 30.0 °F 33% 30.16 in 10.0 mi NNW 18.4 mph 28.8 mph N/A   Clear
5:55 PM 57.0 °F - 27.0 °F 32% 30.18 in 10.0 mi NNW 18.4 mph 29.9 mph N/A   Clear
6:55 PM 55.0 °F - 25.0 °F 31% 30.18 in 10.0 mi NNW 13.8 mph 21.9 mph N/A   Clear
7:55 PM 52.0 °F - 21.9 °F 31% 30.19 in 10.0 mi NNW 10.4 mph - N/A   Clear
8:55 PM 48.2 °F - 24.8 °F 40% 30.19 in 10.0 mi NW 5.8 mph - N/A   Clear
9:55 PM 42.1 °F 39.2 °F 28.9 °F 60% 30.22 in 10.0 mi WNW 4.6 mph - N/A   Clear
10:55 PM 39.9 °F 37.8 °F 30.0 °F 68% 30.23 in 10.0 mi WNW 3.5 mph - N/A   Clear
11:55 PM 37.9 °F 34.4 °F 28.9 °F 70% 30.23 in 10.0 mi WNW 4.6 mph - N/A   Clear